Погода в Телембе

Россия / Республика Бурятия     52°44′15″N   113°17′14″E
темп.,
°C
ветер,
м/с
пор.,
м/с
влажн.,
%
обл.,
%
осадки,
мм/ч
давл.,
гПа
погр.,
м
10 апреля, сб
сб1023:00−2зсз497997 0.1 1019449
02:00−4з410785 0.1 1019329
05:00−4з513695 0.0 1019567
08:00−2зсз6106112 0.0 1019788
11:00+1зсз573457 0.0 10192050
14:00+3сз472794 0.0 10182483
17:00+2ссз3429100 0.0 10192120
20:00−2ссз2546100 0.0 1023415
11 апреля, вс
вс1123:00−5ссв3743100 0.0 1026564
02:00−6ссв2647100 0.0 1027440
05:00−8ссв255153 0.0 1029295
08:00−6с243558 0.0 1029964
11:00−3сз3429100 0.0 10282227
14:00−2сз4526100 0.0 10262675
17:00−2ссз5623100 0.0 10262322
20:00−6с4938100 0.0 1030549
12 апреля, пн
пн1223:00−8с38420 0.0 1033704
02:00−11с26470 0.0 1035338
05:00−12сз22530 0.0 103537
08:00−9сз25330 0.0 1034751
11:00−4зсз35275 0.0 10301911
14:00−1сз35196 0.0 10262426
17:00−1ссз461977 0.0 10242560
20:00−6ссз234269 0.0 102652
13 апреля, вт
вт1323:00−7ссз235099 0.0 102781
02:00−9ссз22610 0.0 102727
05:00−10зсз21670 0.0 102714
08:00−5з24425 0.0 1025457
11:000зюз34295 0.0 10201408
14:00+3з46285 0.0 10151747
17:00+3зсз59348 0.0 10121805
20:00−1з41158100 0.0 1012466
14 апреля, ср
ср1423:00−1з3867100 0.0 1010433
02:00−2з3979100 0.0 1010444
05:00−3сз388136 0.0 1010323
08:00−1ссз585480 0.0 1009739
11:00+3сз4629100 0.0 10072669
14:00+3ссз5626100 0.0 10062739
17:00+2зсз5637100 0.1 10061889
20:00−2зсз4957100 0.3 1009439